Lexington Weather

Lexington, Massachusetts, USA

23°F
1/23/2020 8:12am 
  • Lexington Conditions: Partly cloudy
  • Temperature: 23.4°F / -4.8°CWarmer 2.0°F than last hour.
  • Dew Point: 17.8°FIncreased 1.1°Fsince last hour.
  • Relative Humidity: 79%Decreased 3.0% since last hour.
  • Wind: Calm, 10-min avg: Calm, gust: 1 mph
  • Barometer: 30.33 in Steady
  • Visibility: 10 miles
  • Snow Today: 0.0 in
  •   

Regional Weather Roundup
for Boston / Norton, MA

        
000
ASUS41 KBOX 231100
RWRBOX

REGIONAL WEATHER ROUNDUP
NATIONAL WEATHER SERVICE BOSTON/NORTON MA
600 AM EST THU JAN 23 2020

NOTE:  "FAIR" INDICATES FEW OR NO CLOUDS BELOW 12,000 FEET WITH NO 
SIGNIFICANT WEATHER AND/OR OBSTRUCTIONS TO VISIBILITY.

MAZALL-231200-
EASTERN MASSACHUSETTS
  
CITY           SKY/WX    TMP DP  RH WIND       PRES   REMARKS
BOSTON         FAIR      27  16  63 SW7       30.36S WCI  19          
BEVERLY        FAIR      19  14  81 CALM      30.34R                  
LAWRENCE       FAIR      16  11  80 CALM      30.35R                  
BEDFORD        FAIR      12   8  84 CALM      30.33S                  
BLUE HILL        N/A     25  15  66 S13       30.32R WCI  14          
NORWOOD        FAIR      13   5  70 CALM      30.37R                  
MARSHFIELD     NOT AVBL                                               
PLYMOUTH       FAIR      18  15  88 S3        30.37R                  
TAUNTON        FAIR      12   8  84 CALM      30.37R                  
NEW BEDFORD    FAIR      15  12  88 CALM      30.38R                  
$$

MAZALL-231200-
CAPE COD AND THE ISLANDS
  
CITY           SKY/WX    TMP DP  RH WIND       PRES   REMARKS
FALMOUTH       CLEAR     14  12  92 CALM      30.38                   
HYANNIS        NOT AVBL                                               
CHATHAM        FAIR      28  26  92 SW5       30.39R WCI  23          
PROVINCETOWN   FAIR      33  25  72 SW9       30.38R WCI  25          
NANTUCKET      FAIR      24  22  91 SW3       30.40R                  
MARTHAS VNYRD  FAIR      14  10  84 CALM      30.39R                  
$$
 
MAZALL-231200-
CENTRAL AND WESTERN MASSACHUSETTS
  
CITY           SKY/WX    TMP DP  RH WIND       PRES   REMARKS
WORCESTER      FAIR      25  12  58 SW12      30.30R WCI  14          
FITCHBURG      FAIR      11   7  84 CALM      30.33S                  
ORANGE         FAIR       4  -2  76 CALM      30.36R                  
SPRINGFIELD    FAIR       4  -1  81 CALM      30.36R                  
WESTFIELD      NOT AVBL                                               
NORTH ADAMS    FAIR       5   0  79 CALM      30.37S                  
PITTSFIELD     FAIR       9   3  77 CALM      30.30F                  
$$
 
RIZALL-231200-
RHODE ISLAND
  
CITY           SKY/WX    TMP DP  RH WIND       PRES   REMARKS
PROVIDENCE     FAIR      19  15  84 SW3       30.38R                  
NEWPORT        NOT AVBL                                               
BLOCK ISLAND   FAIR      26  24  92 SW8       30.40R WCI  18          
SMITHFIELD     FAIR      17  15  92 SW3       30.35R                  
WESTERLY       FAIR      18  12  77 CALM      30.40R                  
$$
 
CTZALL-231200-
CONNECTICUT
  
CITY           SKY/WX    TMP DP  RH WIND       PRES   REMARKS
BRADLEY INTL   FAIR      12   7  80 CALM      30.38R                  
HARTFORD       FAIR      15  12  88 CALM      30.40R                  
BRIDGEPORT     FAIR      23  18  81 NW3       30.40R                  
DANBURY        FAIR      12   8  84 CALM      30.38R                  
GROTON         NOT AVBL                                               
NEW HAVEN      FAIR      16  12  84 CALM      30.39R                  
CHESTER        NOT AVBL                                               
MERIDEN        FAIR      14  10  84 CALM      30.39R                  
WILLIMANTIC    FAIR       9   5  84 NE3       30.40R                  
OXFORD         FAIR      18  14  84 CALM      30.36R                  
$$

MEZ002-015-021-024-NHZ003-005-008-011-012-014-VTZ005-008-231200-
NORTHERN NEW ENGLAND
  
CITY           SKY/WX    TMP DP  RH WIND       PRES   REMARKS
PORTLAND ME    FAIR      21  12  68 SW3       30.30F                  
BANGOR ME      FAIR      10   9  95 NW6       30.28R WCI   0          
CONCORD NH     FAIR       7   3  84 N5        30.33R WCI  -2          
MANCHESTER NH  FAIR      12   7  80 N3        30.31S                  
NASHUA NH      FAIR       8   6  92 CALM      30.33F                  
PORTSMOUTH NH  NOT AVBL                                               
JAFFREY NH     FAIR       8   4  83 SE5       30.29F WCI   0          
KEENE NH       FAIR       1  -3  83 S3        30.37R                  
BURLINGTON VT  FAIR      26  14  60 S3        30.32S                  
MT. WASHINGTON PTCLDY    21  -6  30 W53G61      N/A  WCI  -1          
$$

NYZ052-076-231200-
EASTERN NEW YORK
  
CITY           SKY/WX    TMP DP  RH WIND       PRES   REMARKS
ALBANY         FAIR      11   6  81 CALM      30.39R                  
NEW YORK CITY  FAIR      33  19  56 S5        30.40R WCI  29          
$$
 
ANZALL-231200-
MARINE OBSERVATIONS
  
STATION/POSITION TIME  TEMP    WIND        PRES    VSBY  WAVE
                       AIR SEA DIR/SP/G                  HT/PER
                 (UTC) (F)     (DEG/KT/KT) (MB)    (MI)  (FT/S)
BOSTON BUOY      0950   33 42  190/  8/ 10 1027.4          1/ 9
BUZZARDS BAY     1000   36     270/  7/  8 1029.0F
NANTUCKET SOUND  1040                        N/A
MASS BAY-STELLWA 1004   36 41  240/ 10/ 12 1025.5F  1 7/8  1/ 3
ISLE OF SHOALS   1000   31     250/  8/  9 1026.5F
S OF BLOCK IS    1030      45                N/A           2/ 8
$$

......................KEY.........................
  SKY/WX - SKY CONDITION/PRESENT WEATHER
  TMP    - TEMPERATURE IN FAHRENHEIT
  DWPT   - DEWPOINT IN FAHRENHEIT
  RH     - RELATIVE HUMIDITY IN PERCENT
  WIND   - DIRECTION AND SPEED IN MPH
  PRES   - MEAN SEA LEVEL PRESSURE IN INCHES OF HG
  WCI    - WIND CHILL INDEX
  VSB    - VISIBILITY IN MILES
  HX     - HEAT INDEX
  TC     - TEMPERATURE IN CELSIUS
  VRB    - VARIABLE WIND DIRECTION
  N/A    - NOT AVAILABLE
  
      

Other recent Regional Weather Roundups

Thu Jan 23, 8:00am

Thu Jan 23, 7:10am

Thu Jan 23, 7:01am

Thu Jan 23, 6:10am

Thu Jan 23, 5:10am

Thu Jan 23, 5:00am

Thu Jan 23, 4:10am

Thu Jan 23, 4:01am

Thu Jan 23, 3:10am

Thu Jan 23, 3:00am

Thu Jan 23, 2:10am

Thu Jan 23, 2:00am

Thu Jan 23, 1:10am

Thu Jan 23, 1:00am

Thu Jan 23, 12:10am

Thu Jan 23, 12:00am

Wed Jan 22, 11:10pm

Wed Jan 22, 11:01pm

Wed Jan 22, 10:10pm

Wed Jan 22, 10:00pm

Wed Jan 22, 9:10pm

Wed Jan 22, 9:00pm

Wed Jan 22, 8:10pm

Wed Jan 22, 8:01pm

Wed Jan 22, 7:10pm

Wed Jan 22, 7:00pm

Wed Jan 22, 6:10pm

Wed Jan 22, 6:01pm

Wed Jan 22, 5:10pm

Wed Jan 22, 5:00pm

Wed Jan 22, 4:10pm

Wed Jan 22, 4:00pm

Wed Jan 22, 3:10pm

Wed Jan 22, 3:00pm

Wed Jan 22, 2:10pm

Wed Jan 22, 2:00pm

Wed Jan 22, 1:10pm

Wed Jan 22, 1:00pm

Wed Jan 22, 12:10pm

Wed Jan 22, 12:00pm

Wed Jan 22, 11:10am

Wed Jan 22, 11:00am

Wed Jan 22, 10:10am

Wed Jan 22, 10:01am

Wed Jan 22, 9:10am

Wed Jan 22, 9:00am

Wed Jan 22, 8:10am

Wed Jan 22, 8:00am

Wed Jan 22, 7:10am

Wed Jan 22, 7:00am

Wed Jan 22, 6:10am

Wed Jan 22, 6:00am

Wed Jan 22, 5:10am

Wed Jan 22, 5:00am

Wed Jan 22, 4:10am

Wed Jan 22, 4:00am

Wed Jan 22, 3:10am

Wed Jan 22, 3:01am

Wed Jan 22, 2:10am

Wed Jan 22, 2:00am

Wed Jan 22, 1:10am

Wed Jan 22, 1:00am

Wed Jan 22, 12:10am

Wed Jan 22, 12:00am

Tue Jan 21, 11:10pm

Tue Jan 21, 11:00pm

Tue Jan 21, 10:10pm

Tue Jan 21, 10:00pm

Tue Jan 21, 9:10pm

Tue Jan 21, 9:01pm

Tue Jan 21, 8:10pm

Tue Jan 21, 8:00pm

Tue Jan 21, 7:10pm

Tue Jan 21, 7:00pm

Tue Jan 21, 6:10pm

Tue Jan 21, 6:01pm

Tue Jan 21, 5:10pm

Tue Jan 21, 5:00pm

Tue Jan 21, 4:10pm

Tue Jan 21, 4:00pm

Tue Jan 21, 3:10pm

Tue Jan 21, 3:01pm

Tue Jan 21, 2:10pm

Tue Jan 21, 2:00pm

Tue Jan 21, 1:10pm

Tue Jan 21, 1:00pm

Tue Jan 21, 12:10pm

Tue Jan 21, 12:00pm

Tue Jan 21, 11:10am

Tue Jan 21, 11:00am

Tue Jan 21, 10:10am

Tue Jan 21, 10:00am

Tue Jan 21, 9:10am

Tue Jan 21, 9:00am

Tue Jan 21, 8:10am

Tue Jan 21, 8:00am

Tue Jan 21, 7:10am

Tue Jan 21, 7:00am

Tue Jan 21, 6:10am

Tue Jan 21, 6:00am

Tue Jan 21, 5:10am

Tue Jan 21, 5:00am

Tue Jan 21, 4:10am

Tue Jan 21, 4:00am

Tue Jan 21, 3:10am

Tue Jan 21, 3:00am

Tue Jan 21, 2:10am

Tue Jan 21, 2:01am

Tue Jan 21, 1:10am

Tue Jan 21, 1:00am

Tue Jan 21, 12:10am

Tue Jan 21, 12:00am

Mon Jan 20, 11:10pm

Mon Jan 20, 11:00pm

Mon Jan 20, 10:10pm

Mon Jan 20, 10:00pm

Mon Jan 20, 9:10pm

Mon Jan 20, 9:00pm

Mon Jan 20, 8:10pm

Mon Jan 20, 8:00pm

Mon Jan 20, 7:10pm

Mon Jan 20, 7:00pm

Mon Jan 20, 6:10pm

Mon Jan 20, 6:00pm

Mon Jan 20, 5:10pm

Mon Jan 20, 5:00pm

Mon Jan 20, 4:10pm

Mon Jan 20, 4:01pm

Mon Jan 20, 3:10pm

Mon Jan 20, 3:00pm

Mon Jan 20, 2:10pm

Mon Jan 20, 2:00pm

Mon Jan 20, 1:10pm

Mon Jan 20, 1:00pm

Mon Jan 20, 12:10pm

Mon Jan 20, 12:00pm

Mon Jan 20, 11:10am

Mon Jan 20, 11:00am

Mon Jan 20, 10:10am

Mon Jan 20, 10:00am

Mon Jan 20, 9:10am

Mon Jan 20, 9:00am

Meta data:

ID: 60237d82-3b14-407f-a358-1993de80c255
Link: https://api.weather.gov/products/60237d82-3b14-407f-a358-1993de80c255